Location: ???? ?????????
(31.1304°N, 31.7111°E)
Time: 19:54:09
(UTC+00:00)

SR - All Passes

Search period start: 04 March 2021 00:00
Search period end: 14 March 2021 00:00
Orbit: 573 x 882 km, 66.7° (Epoch: 04 March)

Date Brightness Start Highest point End Pass type
(mag) Time Alt. Az. Time Alt. Az. Time Alt. Az.
04 Mar - 00:35:24 10° NNE 00:37:32 12° NE 00:39:37 10° ENE visible
04 Mar - 02:14:32 10° NNW 02:20:30 84° ENE 02:26:10 10° SSE visible
04 Mar - 04:01:03 10° W 04:01:43 10° W 04:02:23 10° WSW daylight
04 Mar - 14:59:30 10° SE 15:02:23 15° ESE 15:05:23 10° ENE daylight
04 Mar - 16:39:03 10° SW 16:43:50 48° WNW 16:49:07 10° NNE visible
05 Mar - 01:25:03 10° N 01:30:37 41° ENE 01:35:58 10° SE visible
05 Mar - 03:07:49 10° NW 03:12:24 24° WSW 03:16:48 10° SSW visible
05 Mar - 15:49:08 10° SSW 15:54:03 77° ESE 15:59:28 10° NNE daylight
05 Mar - 17:34:34 10° WNW 17:36:50 13° NW 17:39:10 10° NNW visible
06 Mar - 00:36:04 10° N 00:40:31 21° NE 00:44:50 10° ESE visible
06 Mar - 02:17:13 10° NW 02:22:55 51° WSW 02:28:19 10° S visible
06 Mar - 15:00:06 10° S 15:04:30 33° ESE 15:09:15 10° NE daylight
06 Mar - 16:42:23 10° WSW 16:46:34 25° NW 16:51:03 10° N visible
06 Mar - 23:48:37 10° NNE 23:50:11 11° NE 23:51:44 10° ENE night (unlit)
07 Mar - 01:27:17 10° NNW 01:33:14 78° ENE 01:38:52 10° SSE visible
07 Mar - 03:12:51 10° W 03:14:30 11° W 03:16:08 10° WSW visible
07 Mar - 14:12:31 10° SE 14:15:08 14° ESE 14:17:52 10° ENE daylight
07 Mar - 15:51:40 10° SW 15:56:33 52° WNW 16:01:53 10° NNE daylight
08 Mar - 00:37:50 10° N 00:43:20 38° ENE 00:48:36 10° SE night (unlit)
08 Mar - 02:20:27 10° NW 02:25:10 26° WSW 02:29:42 10° SSW visible
08 Mar - 15:01:50 10° SSW 15:06:46 71° ESE 15:12:12 10° NNE daylight
08 Mar - 16:46:52 10° W 16:49:29 14° NW 16:52:13 10° NNW visible
08 Mar - 23:48:56 10° N 23:53:12 20° NE 23:57:21 10° E night (unlit)
09 Mar - 01:29:55 10° NW 01:35:39 55° WSW 01:41:06 10° S night (unlit)
09 Mar - 14:12:54 10° SSE 14:17:14 31° ESE 14:21:54 10° NE daylight
09 Mar - 15:54:56 10° WSW 15:59:15 27° NW 16:03:54 10° N daylight
09 Mar - 23:02:13 10° NE 23:02:50 10° NE 23:03:27 10° NE night (unlit)
10 Mar - 00:40:02 10° NNW 00:45:57 73° ENE 00:51:34 10° SSE night (unlit)
10 Mar - 02:25:04 10° W 02:27:16 12° WSW 02:29:26 10° SW night (unlit)
10 Mar - 13:25:34 10° SE 13:27:54 13° ESE 13:30:18 10° ENE daylight
10 Mar - 15:04:19 10° SW 15:09:15 57° WNW 15:14:40 10° NNE daylight
10 Mar - 23:50:37 10° N 23:56:02 36° ENE 00:01:13 10° SE night (unlit)
11 Mar - 01:33:04 10° NW 01:37:55 27° WSW 01:42:34 10° SSW night (unlit)
11 Mar - 14:14:34 10° SSW 14:19:29 65° ESE 14:24:55 10° NNE daylight
11 Mar - 15:59:13 10° W 16:02:09 15° NW 16:05:12 10° NNW daylight
11 Mar - 23:01:48 10° N 23:05:53 19° NE 23:09:50 10° E night (unlit)
12 Mar - 00:42:37 10° NNW 00:48:25 59° WSW 00:53:52 10° S night (unlit)
12 Mar - 13:25:44 10° SSE 13:29:59 28° ESE 13:34:33 10° NE daylight
12 Mar - 15:07:29 10° WSW 15:11:56 29° WNW 15:16:43 10° N daylight
12 Mar - 23:52:47 10° NNW 23:58:41 68° ENE 00:04:14 10° SSE night (unlit)
13 Mar - 01:37:24 10° WNW 01:40:02 13° WSW 01:42:36 10° SW night (unlit)
13 Mar - 12:38:42 10° SE 12:40:39 12° ESE 12:42:40 10° E daylight
13 Mar - 14:16:57 10° SW 14:21:57 62° WNW 14:27:26 10° NNE daylight
13 Mar - 23:03:25 10° N 23:08:44 33° ENE 23:13:48 10° ESE night (unlit)
